This demonstration page uses our WeatherBlox Daily Observations layout. Learn more.

Left ArrowRight Arrow

Hourly Observations for January 24, 2017

Temp ( °F °C ) Dew Point ( °F °C ) Humidity (%) Winds ( mph kmh ) Pressure ( in mb ) Visibility ( mi km ) Precip ( " mm )
12:59 am 00:59 Cloudy with Light Rain 44 6.7 40 4.4 85 85 NNW 23 37 29.35 994 7 11 0.00 0.03
1:59 am 01:59 Cloudy 42 5.6 39 3.9 89 89 NW 16 26 29.37 995 10 16 0.00 0.03
2:59 am 02:59 Cloudy with Light Rain 42 5.6 38 3.3 85 85 NW 18 30 29.40 996 10 16 0.00 0.03
3:59 am 03:59 Cloudy with Light Rain 41 5 39 3.9 93 93 NNW 15 24 29.41 996 5 8 0.00 0.03
4:59 am 04:59 Cloudy 41 5 38 3.3 89 89 NW 18 30 29.43 997 10 16 0.00 0.03
5:59 am 05:59 Cloudy with Light Rain 41 5 38 3.3 89 89 NW 16 26 29.45 997 5 8 0.00 0.03
6:29 am 06:29 Cloudy 40 4.4 37 2.8 89 89 NW 20 31 29.47 998 10 16 0.00 0.03
6:59 am 06:59 Cloudy 40 4.4 37 2.8 89 89 NW 18 30 29.47 998 10 16 0.00 0.03
7:59 am 07:59 Cloudy 40 4.4 36 2.2 86 86 NW 18 30 29.49 999 10 16 0.00 0.00
8:59 am 08:59 Cloudy 41 5 36 2.2 82 82 NW 18 30 29.51 999 10 16 0.00 0.00
9:02 am 09:02 Cloudy 41 5 36 2.2 82 82 NW 16 26 29.50 999 10 16 0.00 0.00
9:59 am 09:59 Cloudy 42 5.6 36 2.2 79 79 NW 21 33 29.54 1000 10 16 0.00 0.00
10:59 am 10:59 Mostly Cloudy 46 7.8 37 2.8 71 71 NW 16 26 29.54 1000 10 16 0.00 0.00
11:59 am 11:59 Mostly Cloudy 48 8.9 37 2.8 66 66 WNW 18 30 29.54 1000 10 16 0.00 0.00
12:33 pm 12:33 Mostly Cloudy 48 8.9 35 1.7 61 61 NW 18 30 29.53 1000 10 16 0.00 0.00
12:59 pm 12:59 Mostly Cloudy 48 8.9 34 1.1 58 58 NW 18 30 29.54 1000 10 16 0.00 0.00
1:59 pm 13:59 Cloudy 50 10 35 1.7 57 57 WNW 16 26 29.53 1000 10 16 0.00 0.00
2:59 pm 14:59 Mostly Cloudy 51 10.6 35 1.7 54 54 WNW 18 30 29.55 1001 10 16 0.00 0.00
3:59 pm 15:59 Mostly Cloudy 54 12.2 37 2.8 53 53 WNW 16 26 29.55 1001 10 16 0.00 0.00
4:59 pm 16:59 Mostly Cloudy 53 11.7 37 2.8 55 55 WNW 15 24 29.58 1002 10 16 0.00 0.00
5:59 pm 17:59 Partly Cloudy 50 10 37 2.8 61 61 WNW 7 11 29.60 1003 10 16 0.00 0.00
6:59 pm 18:59 Partly Cloudy 49 9.4 39 3.9 69 69 W 8 13 29.63 1003 10 16 0.00 0.00
7:59 pm 19:59 Mostly Clear 49 9.4 38 3.3 66 66 W 8 13 29.65 1004 10 16 0.00 0.00
8:59 pm 20:59 Clear 49 9.4 39 3.9 69 69 W 10 17 29.68 1005 10 16 0.00 0.00
9:59 pm 21:59 Mostly Clear 50 10 38 3.3 63 63 W 12 19 29.70 1006 10 16 0.00 0.00
10:59 pm 22:59 Clear 49 9.4 38 3.3 66 66 W 9 15 29.71 1006 10 16 0.00 0.00
11:59 pm 23:59 Clear 48 8.9 39 3.9 71 71 W 12 19 29.72 1006 10 16 0.00 0.00

Powered by AerisWeather